Location: Krakow
(50.0830°N, 19.9170°E)
Time: 12:19:09
(UTC+01:00)

A-11 Canister half - Visible Passes

Search period start: 15 March 2026 00:00
Search period end: 25 March 2026 00:00
Orbit: 1513 x 1686 km, 47.2° (Epoch: 14 March)

Date Brightness Start Highest point End Pass type
(mag) Time Alt. Az. Time Alt. Az. Time Alt. Az.
15 Mar 9.5 18:09:02 10° W 18:19:04 66° SSW 18:29:04 10° ESE visible
15 Mar 10.1 20:14:13 10° W 20:22:59 35° SW 20:28:32 21° S visible
16 Mar 10.1 19:51:05 10° WNW 20:00:00 36° SW 20:07:05 16° SSE visible
16 Mar 11.0 22:01:40 10° WSW 22:02:32 10° WSW 22:03:25 10° SW visible
17 Mar 10.1 19:27:58 10° WNW 19:37:01 38° SW 19:45:41 11° SSE visible
17 Mar 11.0 21:36:52 10° WSW 21:39:38 11° WSW 21:42:23 10° SW visible
18 Mar 10.1 19:04:52 10° WNW 19:14:01 40° SW 19:23:06 10° SSE visible
18 Mar 11.0 21:12:59 10° W 21:16:44 13° WSW 21:20:29 10° SW visible
19 Mar 10.1 18:41:46 10° WNW 18:51:01 42° SW 19:00:14 10° SSE visible
19 Mar 11.0 20:49:19 10° W 20:53:50 14° WSW 20:58:19 10° SSW visible
20 Mar 10.1 18:18:40 10° WNW 18:28:01 44° SW 18:37:20 10° SSE visible
20 Mar 11.0 20:25:48 10° W 20:30:55 15° SW 20:36:00 10° SSW visible
21 Mar 11.0 20:02:22 10° W 20:08:00 17° SW 20:13:35 10° SSW visible
22 Mar 11.0 19:39:00 10° W 19:45:04 18° SW 19:51:07 10° SSW visible
23 Mar 11.0 19:15:41 10° W 19:22:07 19° SW 19:28:34 10° SSW visible
24 Mar 11.1 18:52:23 10° W 18:59:11 21° SW 19:05:59 10° S visible
